Flag for Turkey Weather past 2 weeks in Mersin, Turkey

Now
61 °F

Passing clouds.


Feels Like: 61 °F
Forecast: 48 / 63 °F
Wind: 3 mph from Northeast

Location: Adana / Sakirpasa

Current Time: Dec 21, 2014 at 11:38:48 AM

Latest Report: Dec 21, 2014 at 10:50 AM


Visibility: N/A

Pressure: 30.12 "Hg

Humidity: 52%

Dew point: 43 °F

Location of MersinLocation

Historic Weather in Mersin — Graph

°F

Mersin temperature yesterday

Maximum temperature yesterday: 64 °F (at 12:20 PM)
Minimum temperature yesterday: 48 °F (at 11:50 PM)
Average temperature yesterday: 55 °F

Past Weeks' High & Low Weather Summary

 TemperatureHumidityPressure
High72 °F (Dec 7, 11:50 AM)100% (Dec 21, 3:20 AM)30.30 "Hg (Dec 21, 3:20 AM)
Low43 °F (Dec 15, 4:50 AM)32% (Dec 16, 12:20 PM)29.86 "Hg (Dec 9, 3:20 AM)
Average57 °F70%30.10 "Hg
* Reported Dec 6 10:20 AM — Dec 21 10:20 AM, Mersin, Weather by CustomWeather, © 2014

Note: Actual official high and low records may vary slightly from our data, if they occured in-between our weather recording intervals... More about our weather records

Advertising

Mersin weather history for previous 24 hours

 ConditionsComfort  
Time TempWeatherWind HumidityBarometerVisibility
10:20 AM
Dec 21
59 °FPassing clouds.5 mph51%30.12 "HgN/A
9:50 AM57 °FPassing clouds.5 mph59%30.15 "HgN/A
9:20 AM55 °FPassing clouds.7 mph63%30.15 "HgN/A
8:50 AM54 °FPassing clouds.5 mph77%30.15 "HgN/A
8:20 AM50 °FFog.2 mph88%30.15 "Hg3 mi
7:50 AM45 °FFog.No wind93%30.12 "Hg2 mi
7:20 AM45 °FFog.No wind93%30.12 "Hg2 mi
6:50 AM43 °FFog.1 mph100%30.12 "Hg2 mi
6:20 AM43 °FFog.No wind93%30.12 "Hg2 mi
5:50 AM43 °FFog.No wind93%30.12 "Hg3 mi
5:20 AM43 °FFog.No wind93%30.09 "Hg3 mi
4:50 AM43 °FFog.No wind93%30.09 "Hg2 mi
4:20 AM43 °FFog.3 mph93%30.09 "Hg2 mi
3:50 AM43 °FFog.No wind93%30.09 "Hg2 mi
3:20 AM43 °FFog.No wind100%30.09 "Hg2 mi
2:50 AM43 °FFog.No wind93%30.12 "Hg2 mi
1:50 AM45 °FFog.No wind93%30.12 "Hg2 mi
1:20 AM46 °FFog.No wind93%30.12 "Hg2 mi
12:50 AM46 °FFog.No wind93%30.12 "Hg2 mi
12:20 AM48 °FFog.No wind87%30.12 "Hg2 mi
11:50 PM
Dec 20
48 °FSnow. Fog.2 mph87%30.12 "Hg2 mi
11:20 PM50 °FSnow. Fog.2 mph88%30.12 "Hg2 mi
10:50 PM50 °FSnow. Fog.5 mph88%30.12 "Hg2 mi
10:20 PM50 °FSnow. Overcast.3 mph88%30.12 "Hg2 mi
9:50 PM50 °FSnow. Overcast.2 mph88%30.12 "Hg2 mi
9:20 PM50 °FSnow. Fog.No wind88%30.12 "Hg2 mi
8:50 PM50 °FFog.No wind88%30.12 "Hg2 mi
8:20 PM52 °FFog.No wind88%30.12 "Hg2 mi
7:50 PM52 °FFog.No wind88%30.12 "Hg2 mi
7:20 PM52 °FFog.No wind82%30.12 "Hg2 mi
6:50 PM54 °FFog.No wind82%30.12 "Hg2 mi
6:20 PM54 °FFog.2 mph82%30.12 "Hg2 mi
5:50 PM54 °FFog.3 mph82%30.12 "Hg2 mi
5:20 PM55 °FPassing clouds.No wind77%30.09 "Hg4 mi
4:50 PM57 °FPassing clouds.5 mph72%30.09 "Hg4 mi
4:20 PM61 °FPassing clouds.3 mph59%30.09 "HgN/A
3:50 PM63 °FPassing clouds.5 mph56%30.09 "HgN/A
3:20 PM63 °FPassing clouds.6 mph52%30.09 "HgN/A
2:50 PM64 °FPassing clouds.5 mph49%30.09 "HgN/A
2:20 PM64 °FPassing clouds.5 mph46%30.07 "HgN/A
1:50 PM64 °FPassing clouds.7 mph46%30.07 "HgN/A
1:20 PM64 °FPassing clouds.9 mph46%30.09 "HgN/A
12:50 PM64 °FPassing clouds.8 mph46%30.09 "HgN/A
12:20 PM64 °FPassing clouds.8 mph46%30.09 "HgN/A
11:50 AM63 °FPassing clouds.8 mph49%30.09 "HgN/A
11:20 AM63 °FPassing clouds.7 mph52%30.12 "HgN/A
Weather by CustomWeather, © 2014

See weather overviewHow to use our weather pages